Location: Kitt Peak
(31.9639°N, 111.5992°W)
Time: 21:02:34
(UTC-07:00)

XW-2D - Visible Passes

Search period start: 18 September 2024 00:00
Search period end: 28 September 2024 00:00
Orbit: 367 x 368 km, 97.5° (Epoch: 18 September)

Date Brightness Start Highest point End Pass type
(mag) Time Alt. Az. Time Alt. Az. Time Alt. Az.
18 Sep ? 19:59:26 10° SW 20:01:23 16° W 20:03:20 10° NW visible
19 Sep ? 18:58:28 10° SE 19:01:09 35° ENE 19:03:50 10° N visible
20 Sep ? 19:28:50 10° S 19:31:40 56° W 19:34:31 10° NNW visible
21 Sep ? 20:00:07 10° SW 20:02:03 16° W 20:04:00 10° NW visible
22 Sep ? 18:58:31 10° SE 19:01:09 34° ENE 19:03:48 10° N visible
23 Sep ? 19:28:09 10° S 19:30:58 60° W 19:33:49 10° NNW visible
24 Sep ? 19:58:37 10° SW 20:00:39 18° W 20:02:41 10° NW visible
25 Sep ? 18:56:34 10° SE 18:59:06 30° ENE 19:01:39 10° NNE visible
26 Sep ? 19:25:22 10° S 19:28:12 72° W 19:31:02 10° NNW visible
27 Sep ? 19:54:57 10° SSW 19:57:09 20° W 19:59:22 10° NW visible
